Date,TemperatureHighF,TemperatureAvgF,TemperatureLowF,DewpointHighF,DewpointAvgF,DewpointLowF,HumidityHigh,HumidityAvg,HumidityLow,PressureMaxIn,PressureMinIn,WindSpeedMaxMPH,WindSpeedAvgMPH,GustSpeedMaxMPH,PrecipitationSumIn
2012-11-14,56.0,48.8,40.0,-99.9,-99.9,-99.9,0,0,100,0.00,40.00,0,-999,0,0.00
2012-11-15,59.0,41.4,29.0,-99.9,-99.9,-99.9,0,0,100,0.00,40.00,0,-999,0,0.00
2012-11-16,60.0,38.9,29.0,-99.9,-99.9,-99.9,0,0,100,0.00,40.00,0,-999,0,0.00
2012-11-17,65.0,44.5,29.0,-99.9,-99.9,-99.9,0,0,100,0.00,40.00,0,-999,0,0.00
2012-11-18,66.0,48.1,32.0,-99.9,-99.9,-99.9,0,0,100,0.00,40.00,0,-999,0,0.00
2012-11-19,69.0,50.4,37.0,-99.9,-99.9,-99.9,0,0,100,0.00,40.00,0,-999,0,0.00
2012-11-20,71.0,56.4,43.0,-99.9,-99.9,-99.9,0,0,100,0.00,40.00,0,-999,0,0.00
2012-11-21,74.0,59.0,43.0,-99.9,-99.9,-99.9,0,0,100,0.00,40.00,0,-999,0,0.00
2012-11-22,71.0,55.0,40.0,-99.9,-99.9,-99.9,0,0,100,0.00,40.00,0,-999,0,0.00
2012-11-23,61.0,52.0,43.0,-99.9,-99.9,-99.9,0,0,100,0.00,40.00,0,-999,0,0.00
2012-11-24,54.0,41.3,30.0,-99.9,-99.9,-99.9,0,0,100,0.00,40.00,0,-999,0,0.00
2012-11-25,68.0,42.5,29.0,-99.9,-99.9,-99.9,0,0,100,0.00,40.00,0,-999,0,0.00
2012-11-26,62.0,57.8,54.0,-99.9,-99.9,-99.9,0,0,100,0.00,40.00,0,-999,0,0.00
2012-11-27,58.0,48.1,41.0,-99.9,-99.9,-99.9,0,0,100,0.00,40.00,0,-999,0,0.00
2012-11-28,59.0,41.2,30.0,-99.9,-99.9,-99.9,0,0,100,0.00,40.00,0,-999,0,0.00
2012-11-29,64.0,46.2,29.0,-99.9,-99.9,-99.9,0,0,100,0.00,40.00,0,-999,0,0.00
2012-11-30,68.0,56.3,41.0,-99.9,-99.9,-99.9,0,0,100,0.00,40.00,0,-999,0,0.00
2012-12-1,75.0,65.8,55.0,-99.9,-99.9,-99.9,0,0,100,0.00,40.00,0,-999,0,0.00
2012-12-2,75.0,66.7,62.0,-99.9,-99.9,-99.9,0,0,100,0.00,40.00,0,-999,0,0.00
2012-12-3,73.0,63.4,58.0,-99.9,-99.9,-99.9,0,0,100,0.00,40.00,0,-999,0,0.00
2012-12-4,65.0,63.0,59.0,-99.9,-99.9,-99.9,0,0,100,0.00,40.00,0,-999,0,0.00
2012-12-5,58.0,56.5,50.0,-99.9,-99.9,-99.9,0,0,100,0.00,40.00,0,-999,0,0.00
2012-12-6,60.0,53.0,47.0,-99.9,-99.9,-99.9,0,0,100,0.00,40.00,0,-999,0,0.00
2012-12-7,68.0,58.8,45.0,-99.9,-99.9,-99.9,0,0,100,0.00,40.00,0,-999,0,0.00
2012-12-8,71.0,62.9,60.0,-99.9,-99.9,-99.9,0,0,100,0.00,40.00,0,-999,0,0.00
2012-12-9,73.0,65.1,62.0,-99.9,-99.9,-99.9,0,0,100,0.00,40.00,0,-999,0,0.00
2012-12-10,51.0,41.1,31.0,-99.9,-99.9,-99.9,0,0,100,0.00,40.00,0,-999,0,0.00
2012-12-11,44.0,31.2,25.0,-99.9,-99.9,-99.9,0,0,100,0.00,40.00,0,-999,0,0.00
2012-12-12,53.0,39.3,22.0,-99.9,-99.9,-99.9,0,0,100,0.00,40.00,0,-999,0,0.00
2012-12-13,58.0,35.9,23.0,-99.9,-99.9,-99.9,0,0,100,0.00,40.00,0,-999,0,0.00
2012-12-14,58.0,47.8,32.0,-99.9,-99.9,-99.9,0,0,100,0.00,40.00,0,-999,0,0.00
2012-12-15,63.0,60.1,58.0,-99.9,-99.9,-99.9,0,0,100,0.00,40.00,0,-999,0,0.00
2012-12-16,64.0,60.2,57.0,-99.9,-99.9,-99.9,0,0,100,0.00,40.00,0,-999,0,0.00
2012-12-17,59.0,50.1,40.0,-99.9,-99.9,-99.9,0,0,100,0.00,40.00,0,-999,0,0.00
2012-12-18,70.0,53.2,33.0,-99.9,-99.9,-99.9,0,0,100,0.00,40.00,0,-999,0,0.00
2012-12-19,73.0,63.5,54.0,-99.9,-99.9,-99.9,0,0,100,0.00,40.00,0,-999,0,0.00
2012-12-20,68.0,45.8,36.0,-99.9,-99.9,-99.9,0,0,100,0.00,40.00,0,-999,0,0.00
2012-12-21,57.0,41.6,21.0,-99.9,-99.9,-99.9,0,0,100,0.00,40.00,0,-999,0,0.00
2012-12-22,62.0,42.1,25.0,-99.9,-99.9,-99.9,0,0,100,0.00,40.00,0,-999,0,0.00
2012-12-23,69.0,60.4,53.0,-99.9,-99.9,-99.9,0,0,100,0.00,40.00,0,-999,0,0.00
2012-12-24,62.0,49.6,42.0,-99.9,-99.9,-99.9,0,0,100,0.00,40.00,0,-999,0,0.00
2012-12-25,50.0,43.9,29.0,-99.9,-99.9,-99.9,0,0,100,0.00,40.00,0,-999,0,0.00
2012-12-26,35.0,29.5,25.0,-99.9,-99.9,-99.9,0,0,100,0.00,40.00,0,-999,0,0.00
2012-12-27,43.0,33.7,22.0,-99.9,-99.9,-99.9,0,0,100,0.00,40.00,0,-999,0,0.00
2012-12-28,42.0,39.4,35.0,-99.9,-99.9,-99.9,0,0,100,0.00,40.00,0,-999,0,0.00
2012-12-29,43.0,34.6,25.0,-99.9,-99.9,-99.9,0,0,100,0.00,40.00,0,-999,0,0.00
2012-12-30,45.0,32.2,21.0,-99.9,-99.9,-99.9,0,0,100,0.00,40.00,0,-999,0,0.00
2012-12-31,52.0,44.8,37.0,-99.9,-99.9,-99.9,0,0,100,0.00,40.00,0,-999,0,0.00
2013-1-1,50.0,44.0,39.0,-99.9,-99.9,-99.9,0,0,100,0.00,40.00,0,-999,0,0.00